AirNav   Everest Fuels
 
 422 users online  

FL64 Hardrives Delta Nr 3 Helistop
Delray Beach, Florida, USA

GOING TO DELRAY BEACH?


FAA INFORMATION EFFECTIVE 21 MAY 2020

Location

FAA Identifier: FL64
Lat/Long: 26-25-58.0800N 080-05-36.7800W
26-25.968000N 080-05.613000W
26.4328000,-80.0935500
(estimated)
Elevation: 15 ft. / 5 m (estimated)
Variation: 03W (1985)
Time zone: UTC -4 (UTC -5 during Standard Time)
Zip code: 33445

Heliport Operations

Heliport use: Private use. Permission required prior to landing
Activation date: 05/1975
Control tower: no
ARTCC: MIAMI CENTER
FSS: MIAMI FLIGHT SERVICE STATION
Attendance: MON-SAT SR-SS
Segmented circle: no

Heliport Communications

WX AWOS-3 at BCT (3 nm S): 121.125 (561-391-2696)
WX AWOS-3PT at LNA (10 nm N): 119.925 (561-964-0308)
WX ASOS at PMP (11 nm S): PHONE 954-783-3720
WX ASOS at FXE (15 nm S): PHONE 954-772-2537
WX ASOS at PBI (15 nm N): 123.75 (561-683-2548)

Nearby radio navigation aids

VOR radial/distance  VOR name  Freq  Var
PBIr184/14.8PALM BEACH VORTAC115.7003W
FLLr016/21.9FORT LAUDERDALE VOR/DME114.4006W
PHKr123/38.3PAHOKEE VOR/DME115.4000E

 
NDB name  Hdg/Dist  Freq  Var  ID
UNITED161/31.440505WUTX ..- - -..-

Heliport Services

Runway Information

Helipad H1

Dimensions: 100 x 100 ft. / 30 x 30 m
Surface: turf, in fair condition
Latitude: 26-25.968000N
Longitude: 080-05.613000W
Elevation: 15.0 ft.
Traffic pattern: leftleft
Markings: none, in fair condition

Heliport Ownership and Management from official FAA records

Ownership: Privately-owned
Owner: HARDRIVES, INC.
2101 SOUTH CONGRESS
DELRAY BEACH, FL 33445
Phone 561-278-0456
Manager: GEORGE T. ELMORE, PRESIDENT
2101 SOUTH CONGRESS
DELRAY BEACH, FL 33445
Phone 561-278-0456

Heliport Operational Statistics

Aircraft based on the field: 2
Helicopters: 2
    

Additional Remarks

FOR CD CTC PALM BEACH APCH AT 561-275-1430

Instrument Procedures

There are no published instrument procedures at FL64.

Some nearby airports with instrument procedures:

KBCT - Boca Raton Airport (3 nm S)
KLNA - Palm Beach County Park Airport (10 nm N)
KPMP - Pompano Beach Airpark (11 nm S)
KFXE - Fort Lauderdale Executive Airport (15 nm S)
KPBI - Palm Beach International Airport (15 nm N)
 
Loc | Ops | Rwys | IFR | FBO | Links
Com | Nav | Svcs | Stats | Notes

Reliance Aviation
AirBoss

 
Area around FL64 (Hardrives Delta Nr 3 Helistop)
 
Road maps at: MapQuest Bing Google
 
Aerial photo
No photo
 
Sectional chart

 
Airport distance calculator
Flying to Hardrives Delta Nr 3 Helistop? Find the distance to fly.

From to FL64

Sunrise and sunset
Times for 06-Jun-2020
 Local
(UTC-4)
 Zulu
(UTC)
Morning civil twilight06:0210:02
Sunrise06:2810:28
Sunset20:1100:11
Evening civil twilight20:3700:37

Current date and time
Zulu (UTC)  06-Jun-2020 06:47:16
Local (UTC-4)  06-Jun-2020 02:47:16
 
METAR
KBCT 
3nm S 
060247Z 28004KT 10SM TS BKN014 BKN025 24/23 A3003 RMK LTG DSNT ALQDS.
KPMP 
11nm S 
060605Z AUTO 12014KT 8SM FEW016 BKN030 OVC090 26/26 A2999 RMK AO2 T02610261 $
KFXE 
15nm S 
060626Z 12010KT 10SM FEW018 BKN028 28/26 A2998 RMK AO2 T02780256 $
KPBI 
15nm N 
060553Z 11014KT 10SM -RA SCT016 BKN030 OVC090 27/26 A3001 RMK AO2 LTG DSNT W RAB49 SLP161 CB DSNT W P0000 60059 T02670256 10272 20228 58013
TAF
KFXE 
15nm S 
060535Z 0606/0706 10005KT P6SM VCSH FEW015 SCT025 BKN050 FM061400 14015KT P6SM VCSH SCT020 BKN045 FM062200 15007KT P6SM FEW025 SCT050 BKN150
KPBI 
15nm N 
060535Z 0606/0706 10005KT P6SM VCSH FEW015 SCT025 BKN050 TEMPO 0606/0609 SCT015 BKN025 FM061300 14015KT P6SM VCSH SCT020 BKN045 FM062200 15007KT P6SM FEW025 SCT050 BKN150
NOTAMs
Click for the latest NOTAMs
NOTAMs are issued by the DoD/FAA and will open in a separate window not controlled by AirNav.

 

 
 

Would you like to see your business listed on this page?

 If your business provides an interesting product or service to pilots, flight crews, aircraft, or users of the Hardrives Delta Nr 3 Helistop, you should consider listing it here.  To start the listing process, click on the button below
 
Add a business
 

Other Pages about Hardrives Delta Nr 3 Helistop

Update a link
 
Copyright © AirNav, LLC. All rights reserved. Privacy Policy  Contact